Location: Bannatyne
(13.0833°N, 59.5333°W)
Time: 14:12:38
(UTC+00:00)

Vanguard 2 Rocket - Pass Details

Date: 21 January 2020
Orbit: 554 x 3326 km, 32.9° (Epoch: 29 March)

Event Time Altitude Azimuth Distance (km) Brightness Sun altitude
Rises 20:18:04 0° 266° (W) 6,952 12.6 20.5°
Reaches altitude 10° 20:25:20 10° 249° (WSW) 6,193 13.5 19.0°
Maximum altitude 20:36:39 18° 215° (SW) 5,609 12.2 16.5°
Drops below altitude 10° 20:47:38 10° 179° (S) 5,912 11.4 14.1°
Sets 20:54:31 0° 161° (SSE) 6,516 11.3 12.5°
